{"data":{"norad_id":62570,"intl_designator":"2025-006S","name":"STARLINK-32764","alt_names":[],"object_type":"PAYLOAD","status":"ACTIVE","operator":null,"country":"US","launch_date":"2025-01-10","launch_site_code":"AFETR","launch_vehicle":null,"mission":null,"orbit_class":"UNKNOWN","rcs_meters":null,"size_class":null,"mass_kg":null,"dimensions":null,"purposes":["comms"],"wikipedia_slug":null,"has_3d_model":false,"image_url":null,"decayed_at":null,"tle_current":{"epoch":"2026-09-21T08:39:25.797600Z","epoch_age_seconds":97023,"freshness":"FRESH","line1":"1 62570U 25006S   26264.36071525  .00008142  00000+0  30500-3 0  9997","line2":"2 62570  43.0006 267.9025 0001512 266.6910  93.3769 15.27586416 94785","mean_motion":15.27586416,"eccentricity":0.0001512,"inclination_deg":43.0006,"raan_deg":267.9025,"arg_perigee_deg":266.691,"mean_anomaly_deg":93.3769,"bstar":0.000305,"rev_number":9478,"period_min":94.26635278485,"perigee_km":481.99247586185,"apogee_km":484.06729272766,"semimajor_km":6861.1668842948,"source":"CELESTRAK","updated_at":"2026-09-22T09:00:49.629320Z"}}}